Location: Chihuahua
(28.6330°N, 106.0830°W)
Time: 13:38:04
(UTC-07:00)

Daily predictions for brighter satellites

Satellite Brightness Start Highest point End
(mag) Time Altitude Azimuth Time Altitude Azimuth Time Altitude Azimuth
Cosmos 1777 Rocket 4.3 19:24:15 10° SSW 19:29:30 76° WNW 19:34:46 10° NNE
Cosmos 2266 Rocket 4.5 19:27:43 10° SSE 19:33:32 40° E 19:39:16 10° NNE
USA 186 1.8 19:35:39 10° SE 19:37:40 30° ENE 19:39:44 10° N
GPS 2-12 Rocket1 4.4 19:34:46 10° WSW 19:38:16 23° S 19:41:48 10° SE
CZ-4 DEB 3.9 19:36:07 10° SE 19:38:54 28° ENE 19:41:41 10° NNE
H-2A R/B 4.0 19:37:02 10° ESE 19:39:48 16° ENE 19:42:33 10° NNE
H-2A R/B 2.6 19:40:23 10° SW 19:42:41 32° SSE 19:48:38 10° E
Cosmos 1328 Rocket 3.6 19:38:40 10° N 19:43:05 68° E 19:47:28 10° SSE
Cosmos 1553 Rocket 4.0 19:41:14 10° N 19:47:35 74° E 19:53:47 10° S
H-2A R/B 2.7 19:44:44 10° SSE 19:48:33 67° ENE 19:52:18 10° N
OTV 4 1.5 19:46:25 10° W 19:49:18 45° NNW 19:52:10 10° NE
Hubble Space Telescope 1.0 19:46:47 10° WSW 19:50:46 48° SSE 19:54:46 10° E
YAOGAN 11 4.5 19:49:55 10° SSE 19:54:01 45° ENE 19:58:11 10° N
OE (NEXTSAT) 4.4 19:50:51 10° NW 19:54:25 85° SW 19:57:15 15° SE
CZ-2D R/B 3.6 19:55:17 10° S 19:59:07 65° W 20:02:57 10° NNW
Cosmos 1500 Rocket 4.4 19:57:38 10° SSW 20:01:54 54° W 20:06:13 10° N
Cosmos 2058 3.7 20:00:30 13° SSE 20:03:37 31° E 20:07:16 10° NNE
CZ-3C R/B 2.7 19:59:49 10° WSW 20:03:46 18° SSW 20:05:19 13° SSE
Cosmos 2151 2.9 20:00:37 10° S 20:04:45 62° E 20:08:54 10° NNE
COSMOS 2428 4.0 20:00:36 10° N 20:05:10 25° ENE 20:08:24 15° ESE
DELTA 2 R/B (1) 4.0 20:00:41 10° NW 20:06:09 57° NNE 20:10:39 15° E
Cosmos 1437 Rocket 2.7 20:03:24 10° N 20:07:15 86° E 20:11:06 10° S
Cosmos 1680 Rocket 3.8 20:05:46 10° N 20:10:53 52° ENE 20:14:37 18° SE
Cosmos 405 2.9 20:10:05 10° N 20:13:41 71° E 20:16:12 18° SSE
Cosmos 1437 2.9 20:10:43 10° SSW 20:13:59 73° W 20:17:14 10° N
Cosmos 1898 Rocket 3.6 20:10:23 10° S 20:15:23 52° ESE 20:20:25 10° NNE
Cosmos 923 Rocket 3.9 20:11:35 10° NNW 20:16:48 83° ENE 20:20:59 16° SSE
Tiangong 1 4.5 20:18:29 10° NNW 20:19:09 10° NNW 20:19:50 10° N
Cosmos 773 Rocket 4.2 20:13:59 10° NNW 20:19:11 70° WSW 20:24:05 12° S
ALOS 3.4 20:15:48 10° S 20:20:13 42° W 20:24:39 10° NNW
Cosmos 1939 Rocket 3.2 20:18:36 25° SE 20:20:30 43° ENE 20:24:12 10° N
NOSS 3-1 (A) 3.5 20:15:31 10° SSW 20:21:15 79° WNW 20:27:28 10° NNE
Aureole 3 4.4 20:17:40 10° S 20:24:32 84° E 20:30:00 10° N
Nadezhda 2 Rocket 4.4 20:19:21 10° S 20:25:28 76° E 20:31:34 10° N
Cosmos 2219 4.2 20:21:44 10° SW 20:27:17 51° WNW 20:32:52 10° N
Cosmos 2150 Rocket 4.0 20:26:15 10° S 20:31:40 81° ESE 20:37:08 10° NNE
OAO 2 Rocket 4.4 20:26:47 10° W 20:31:54 47° N 20:37:02 10° ENE
Sich 1 3.4 20:31:29 30° SE 20:33:07 44° E 20:37:17 10° NNE
Cosmos 1328 4.4 20:31:56 10° SSW 20:35:48 56° W 20:39:41 10° N
Cosmos 2237 Rocket 4.1 20:33:50 10° NNE 20:36:41 14° ENE 20:38:17 12° ENE
Cosmos 2082 4.1 20:33:52 23° SSE 20:36:49 40° ESE 20:42:06 10° NE
Nimbus 7 Rocket 4.4 20:31:07 10° NNE 20:37:00 88° WNW 20:42:53 10° SSW
BREEZE M DEB (TANK) 2.5 20:35:12 10° WNW 20:37:21 49° SSW 20:38:39 32° SSE
Cosmos 2322 Rocket 4.4 20:34:41 10° NW 20:38:39 20° W 20:42:37 10° SW
ERBS 3.7 20:35:44 10° WSW 20:39:05 41° NW 20:42:25 10° NNE
YAOGAN 6 4.1 20:39:28 22° ENE 20:39:28 22° ENE 20:42:01 10° NNE
deb Chang Zheng 4 4.4 20:35:20 10° N 20:39:32 52° WNW 20:43:46 10° SSW
Cosmos 1633 Rocket 3.2 20:39:37 36° SE 20:41:01 52° E 20:45:16 10° NNE
Cosmos 1271 Rocket 4.5 20:38:24 10° NNE 20:40:45 19° ENE 20:40:45 19° ENE
Cosmos 1151 Rocket 3.7 20:37:21 10° NNW 20:41:34 53° W 20:44:50 16° SSW
ATLAS 2AS CENTAUR R/B 2.9 20:36:07 10° S 20:43:02 55° ESE 20:50:38 10° NE
ERS-1 Rocket 3.3 20:39:35 17° S 20:43:22 63° WSW 20:48:22 10° NNW
Cosmos 2322 4.0 20:38:17 10° NNW 20:43:56 65° WSW 20:47:36 22° S
Cosmos 2360 Rocket 2.6 20:40:16 10° NNW 20:45:49 59° WSW 20:49:31 21° S
Cosmos 1703 3.8 20:50:08 39° ENE 20:50:08 39° ENE 20:53:24 10° NNE
Envisat 2.9 20:48:33 32° SSE 20:50:58 88° E 20:56:03 10° NNW
SL-14 R/B 3.2 20:49:48 37° S 20:51:17 87° WNW 20:55:17 10° N
Cosmos 2242 Rocket 4.3 20:50:27 10° NNE 20:54:36 36° E 20:54:37 36° E
PSLV R/B 3.9 20:55:40 45° NNE 20:55:40 45° NNE 20:58:01 10° N
CZ-4 R/B 4.2 20:53:28 10° NNE 20:58:03 43° E 20:58:03 43° E
Cosmos 1805 Rocket 4.4 20:54:56 13° SSW 20:58:47 48° W 21:03:06 10° N
Sakura Rocket 2.6 20:55:12 10° WSW 20:59:42 72° S 20:59:47 72° SSE
H-2A R/B 2.8 20:59:39 10° W 21:00:22 16° W 21:00:22 16° W
Cosmos 220 Rocket 4.3 20:59:11 19° SSW 21:02:14 66° WNW 21:06:38 10° N
Cosmos 2227 Rocket 2.1 21:04:43 22° SSW 21:08:32 86° ESE 21:14:13 10° NNE
Cosmos 1937 Rocket 3.9 21:04:06 10° SSW 21:09:16 61° WNW 21:14:26 10° N
Meteor 1-27 4.1 21:03:39 10° N 21:09:18 88° W 21:11:10 44° S
Cosmos 1300 2.8 21:06:51 10° NNW 21:10:39 66° W 21:10:50 65° WSW
USA 32 4.1 21:07:31 10° N 21:12:41 56° E 21:13:03 55° ESE
MetOp-A 4.0 21:11:45 52° SSE 21:13:07 88° ENE 21:18:30 10° NNW
Cosmos 990 Rocket 3.9 21:12:38 32° SSW 21:15:02 80° WNW 21:20:12 10° NNE
H-2A R/B 3.5 21:13:30 24° SW 21:15:27 34° W 21:19:35 10° NNW
CZ-3C R/B 4.3 20:59:14 10° SW 21:17:40 22° S 21:18:43 22° S
SPOT 5 3.2 21:19:17 47° SW 21:20:14 57° W 21:24:56 10° NNW
Cosmos 292 Rocket 3.6 21:19:54 10° NNW 21:24:32 76° NE 21:24:32 76° NE
Cosmos 1707 Rocket 4.3 21:20:33 10° NNW 21:24:45 47° W 21:25:28 43° WSW
OTV 4 3.3 21:24:12 10° NW 21:26:04 15° N 21:26:19 15° N
ARGOS 3.1 21:26:16 64° E 21:26:35 65° ENE 21:31:56 10° N
Hubble Space Telescope 1.9 21:27:48 10° W 21:30:22 37° W 21:30:22 37° W
CZ-4B R/B 4.2 21:27:06 10° N 21:32:10 53° WNW 21:34:27 30° SW
SL-16 R/B 4.0 21:28:47 10° NNE 21:32:32 18° ENE 21:32:32 18° ENE
Cosmos 1455 4.1 21:29:12 10° NNE 21:30:51 22° NNE 21:30:51 22° NNE
Cosmos 1726 3.4 21:30:47 10° NNW 21:33:54 37° WNW 21:33:54 37° WNW
Cosmos 2297 Rocket 2.2 21:33:34 53° SSW 21:34:59 81° WNW 21:40:39 10° NNE
Cosmos 1470 Rocket 3.9 21:36:19 60° NNW 21:36:19 60° NNW 21:40:01 10° N
Cosmos 1933 Rocket 3.9 21:37:06 64° NNW 21:37:06 64° NNW 21:41:03 10° N
Cosmos 2333 Rocket 2.3 21:32:02 10° N 21:37:43 59° ENE 21:37:44 59° ENE
SL-08 RB Rocket 4.2 21:43:10 54° N 21:43:10 54° N 21:46:41 10° N
Meteor 1-4 Rocket 4.3 21:38:58 10° NNW 21:41:20 33° NW 21:41:20 33° NW
Cosmos 2219 Rocket 2.0 21:39:13 10° NNW 21:44:50 86° WSW 21:44:50 86° WSW
Lacrosse 4 Rocket 3.8 21:43:32 10° NNE 21:45:16 16° NE 21:45:16 16° NE
Meteor 2-10 4.2 21:42:34 10° N 21:48:18 76° W 21:48:33 75° WSW
COSMOS 2428 3.8 21:44:20 10° NW 21:49:23 34° WSW 21:50:27 31° SW
Terra 3.0 21:53:15 34° NNE 21:53:15 34° NNE 21:56:19 10° N
NOSS 0 Rocket 3.8 21:47:18 10° NNW 21:53:29 86° WSW 21:53:36 85° SSW
H-2A R/B 2.6 21:56:03 53° NE 21:56:03 53° NE 22:00:32 10° N
Nadezhda 1 Rocket 3.8 21:50:37 10° N 21:56:45 84° W 21:56:55 82° SW
Cosmos 1125 Rocket 3.9 22:03:57 61° NNW 22:03:57 61° NNW 22:08:34 10° N
COSMOS 2455 3.7 21:59:56 10° N 22:04:58 39° NE 22:04:58 39° NE
Cosmos 1980 4.0 22:03:49 10° NNW 22:08:40 64° NW 22:08:40 64° NW
Cosmos 1709 Rocket 4.0 22:12:20 74° N 22:12:20 74° N 22:17:51 10° N
OAO 2 Rocket 4.4 22:12:15 10° WNW 22:16:59 43° N 22:16:59 43° N
Cosmos 2237 Rocket 2.8 22:15:30 10° NNW 22:20:07 53° WNW 22:20:07 53° WNW
ATLAS 3B R/B 3.0 22:42:23 10° NNW 22:47:56 60° NNW 22:47:56 60° NNW
CZ-4C R/B 4.3 22:58:45 10° N 23:04:44 26° NE 23:05:36 26° ENE
USA 238 DEB 4.4 23:00:06 10° NNW 23:05:55 46° NNE 23:05:55 46° NNE
USA 238 4.4 23:00:12 10° NNW 23:06:02 46° NE 23:06:02 46° NE
SL-16 R/B 3.8 23:11:29 10° NNW 23:14:25 29° NW 23:14:25 29° NW
